Location: Carnetin
(48.9010°N, 2.7059°E)
Time: 12:54:43
(UTC+00:00)

SL-16 R/B - Pass Details

Date: 24 October 2021
Orbit: 842 x 846 km, 71.0° (Epoch: 05 December)

Event Time Altitude Azimuth Distance (km) Brightness Sun altitude
Rises 17:51:33 0° 196° (SSW) 3,387 5.6 -12.0°
Reaches altitude 10° 17:54:00 10° 194° (SSW) 2,457 4.9 -12.4°
Maximum altitude 17:59:35 66° 113° (ESE) 923 2.2 -13.3°
Drops below altitude 10° 18:05:12 10° 33° (NNE) 2,476 4.3 -14.2°
Sets 18:07:40 0° 31° (NNE) 3,416 5.0 -14.6°
Enters shadow 18:07:41 - 31° (NNE) 3,421 5.0 -14.7°
